TimeEDT,TemperatureF,Dew PointF,Humidity,Sea Level PressureIn,VisibilityMPH,Wind Direction,Wind SpeedMPH,Gust SpeedMPH,PrecipitationIn,Events,Conditions,WindDirDegrees,DateUTC
12:51 AM,61.0,48.0,62,30.09,10.0,NE,6.9,-,N/A,,Overcast,50,2011-09-23 04:51:00
1:51 AM,59.0,48.0,67,30.06,10.0,ENE,6.9,-,N/A,,Overcast,70,2011-09-23 05:51:00
2:51 AM,57.9,48.9,72,30.05,10.0,East,3.5,-,N/A,,Mostly Cloudy,80,2011-09-23 06:51:00
3:51 AM,55.9,50.0,80,30.01,10.0,East,8.1,-,N/A,,Overcast,80,2011-09-23 07:51:00
4:51 AM,55.0,52.0,89,29.99,10.0,ENE,6.9,-,N/A,,Mostly Cloudy,70,2011-09-23 08:51:00
5:51 AM,55.0,53.1,93,29.98,10.0,North,3.5,-,N/A,,Overcast,360,2011-09-23 09:51:00
6:51 AM,54.0,52.0,93,29.98,10.0,ENE,3.5,-,N/A,,Mostly Cloudy,70,2011-09-23 10:51:00
7:51 AM,57.0,54.0,89,29.99,6.0,Calm,Calm,-,0.00,Rain,Light Rain,0,2011-09-23 11:51:00
8:39 AM,55.4,55.4,100,29.98,1.5,NW,5.8,-,0.05,Rain,Light Rain,320,2011-09-23 12:39:00
8:41 AM,55.4,55.4,100,29.98,1.5,NNW,8.1,-,0.05,Rain,Light Rain,330,2011-09-23 12:41:00
8:51 AM,55.9,55.0,97,29.98,6.0,NW,6.9,-,0.05,Rain,Light Rain,320,2011-09-23 12:51:00
9:13 AM,57.2,55.4,94,29.98,7.0,NNW,4.6,-,0.00,,Overcast,340,2011-09-23 13:13:00
9:51 AM,57.2,55.4,94,29.98,3.0,NW,6.9,-,N/A,Rain,Light Rain,310,2011-09-23 13:51:00
10:07 AM,57.2,55.4,94,29.98,7.0,NNW,6.9,-,0.01,Rain,Light Rain,340,2011-09-23 14:07:00
10:18 AM,57.2,55.4,94,29.98,7.0,NNW,4.6,-,0.01,Rain,Light Rain,340,2011-09-23 14:18:00
10:51 AM,57.9,55.9,93,29.98,7.0,NNW,6.9,-,0.01,Rain,Light Rain,330,2011-09-23 14:51:00
11:51 AM,57.9,55.9,93,29.98,7.0,NNW,12.7,-,0.00,,Overcast,330,2011-09-23 15:51:00
12:14 PM,57.2,57.2,100,29.97,1.0,NNW,10.4,-,0.00,Rain,Light Rain,330,2011-09-23 16:14:00
12:44 PM,57.2,55.4,94,29.97,1.0,NW,12.7,19.6,0.02,Rain,Light Rain,320,2011-09-23 16:44:00
12:51 PM,57.9,55.9,93,29.97,1.0,NNW,13.8,20.7,0.02,Rain,Light Rain,330,2011-09-23 16:51:00
1:37 PM,57.2,55.4,94,29.96,2.0,NNW,13.8,-,0.01,Rain,Light Rain,340,2011-09-23 17:37:00
1:51 PM,57.0,55.0,93,29.96,2.0,NNW,16.1,-,0.01,Rain,Light Rain,340,2011-09-23 17:51:00
2:15 PM,57.2,55.4,94,29.96,5.0,NNW,15.0,-,0.00,,Overcast,340,2011-09-23 18:15:00
2:51 PM,55.9,55.0,97,29.96,3.0,NNW,9.2,-,0.01,Rain,Light Rain,330,2011-09-23 18:51:00
2:56 PM,55.4,55.4,100,29.96,2.0,NNW,9.2,-,0.02,Rain,Light Rain,330,2011-09-23 18:56:00
3:13 PM,57.2,55.4,94,29.95,4.0,NNW,11.5,-,0.05,Rain,Light Rain,330,2011-09-23 19:13:00
3:51 PM,57.2,55.4,94,29.93,10.0,NNW,9.2,-,N/A,,Overcast,340,2011-09-23 19:51:00
4:10 PM,60.8,55.4,82,29.92,10.0,NNE,4.6,-,N/A,,Mostly Cloudy,30,2011-09-23 20:10:00
4:32 PM,60.8,55.4,82,29.93,10.0,NNW,8.1,-,N/A,,Mostly Cloudy,340,2011-09-23 20:32:00
4:51 PM,59.0,55.4,88,29.93,10.0,NW,8.1,-,N/A,,Overcast,320,2011-09-23 20:51:00
5:13 PM,60.8,55.4,82,29.92,10.0,Calm,Calm,-,N/A,,Overcast,0,2011-09-23 21:13:00
5:51 PM,60.1,55.9,86,29.94,10.0,WNW,8.1,-,N/A,,Mostly Cloudy,300,2011-09-23 21:51:00
6:21 PM,59.0,55.4,88,29.95,10.0,WNW,6.9,-,N/A,,Overcast,290,2011-09-23 22:21:00
6:51 PM,59.0,55.9,90,29.96,10.0,WNW,3.5,-,N/A,,Mostly Cloudy,290,2011-09-23 22:51:00
7:09 PM,57.2,55.4,94,29.95,10.0,WNW,3.5,-,N/A,,Scattered Clouds,290,2011-09-23 23:09:00
7:45 PM,55.4,55.4,100,29.96,6.0,Calm,Calm,-,N/A,,Mostly Cloudy,0,2011-09-23 23:45:00
7:51 PM,55.9,55.0,97,29.97,6.0,West,3.5,-,N/A,,Mostly Cloudy,260,2011-09-23 23:51:00
8:41 PM,57.2,53.6,88,29.98,10.0,NW,3.5,-,N/A,,Scattered Clouds,320,2011-09-24 00:41:00
8:51 PM,55.9,54.0,93,29.98,10.0,Calm,Calm,-,N/A,,Scattered Clouds,0,2011-09-24 00:51:00
9:22 PM,53.6,53.6,100,29.99,10.0,Calm,Calm,-,N/A,,Scattered Clouds,0,2011-09-24 01:22:00
9:26 PM,53.6,53.6,100,29.99,10.0,Calm,Calm,-,N/A,,Scattered Clouds,0,2011-09-24 01:26:00
9:51 PM,54.0,53.1,97,30.00,7.0,Calm,Calm,-,N/A,,Mostly Cloudy,0,2011-09-24 01:51:00
10:35 PM,53.6,53.6,100,30.01,6.0,Calm,Calm,-,N/A,,Overcast,0,2011-09-24 02:35:00
10:51 PM,53.6,53.6,100,30.02,8.0,Calm,Calm,-,N/A,,Overcast,0,2011-09-24 02:51:00
11:51 PM,55.9,55.0,97,30.01,9.0,Calm,Calm,-,N/A,,Mostly Cloudy,0,2011-09-24 03:51:00